DLH05K EDDF-LOWS

Flight info

Callsign DLH05K
Flight time 0h 39m
Altitude 29000
Route CINDY8S/18 CINDY Z74 HAREM DCT ASLEP DCT TAKUT DCT DINKU L603 OLETU T702 BADIT BADIT2R
Aircraft A319/M-SDE3FGHIRWY/LB1

Departure

Time 2026-05-06 13:45
Airport Frankfurt Main Airport (EDDF)

Arrival

Time 2026-05-06 14:25
Airport Salzburg Airport (LOWS)
Time Latitude Longitude Altitude Speed Heading
2026-05-06 13:15 50.04656 8.56808 356 ft 0 kts 295°
2026-05-06 13:31 50.04651 8.56824 364 ft 4 kts 295°
2026-05-06 13:31 50.04640 8.56862 362 ft 3 kts 295°
2026-05-06 13:31 50.04631 8.56895 361 ft 4 kts 274°
2026-05-06 13:32 50.04637 8.56927 359 ft 4 kts 210°
2026-05-06 13:32 50.04662 8.56941 358 ft 4 kts 199°
2026-05-06 13:32 50.04660 8.56939 358 ft 4 kts 204°
2026-05-06 13:32 50.04646 8.56929 364 ft 0 kts 204°
2026-05-06 13:35 50.04641 8.56926 358 ft 3 kts 203°
2026-05-06 13:35 50.04616 8.56914 359 ft 4 kts 194°
2026-05-06 13:35 50.04583 8.56901 357 ft 5 kts 194°
2026-05-06 13:35 50.04570 8.56896 363 ft 0 kts 194°
2026-05-06 13:36 50.04563 8.56894 361 ft 2 kts 194°
2026-05-06 13:36 50.04527 8.56880 359 ft 8 kts 193°
2026-05-06 13:36 50.04455 8.56828 359 ft 14 kts 233°
2026-05-06 13:37 50.04404 8.56627 359 ft 25 kts 249°
2026-05-06 13:37 50.04341 8.56365 356 ft 26 kts 250°
2026-05-06 13:37 50.04277 8.56095 359 ft 27 kts 249°
2026-05-06 13:37 50.04211 8.55818 357 ft 28 kts 249°
2026-05-06 13:38 50.04142 8.55533 352 ft 28 kts 249°
2026-05-06 13:38 50.04074 8.55247 357 ft 27 kts 250°
2026-05-06 13:38 50.04008 8.54972 360 ft 27 kts 249°
2026-05-06 13:38 50.03940 8.54688 351 ft 28 kts 249°
2026-05-06 13:39 50.03869 8.54395 349 ft 29 kts 243°
2026-05-06 13:39 50.03775 8.54119 347 ft 29 kts 249°
2026-05-06 13:39 50.03703 8.53822 346 ft 29 kts 250°
2026-05-06 13:39 50.03630 8.53525 339 ft 29 kts 248°
2026-05-06 13:40 50.03558 8.53226 337 ft 30 kts 249°
2026-05-06 13:40 50.03497 8.52971 336 ft 18 kts 250°
2026-05-06 13:40 50.03461 8.52839 337 ft 8 kts 246°
2026-05-06 13:40 50.03444 8.52773 333 ft 5 kts 249°
2026-05-06 13:41 50.03432 8.52725 334 ft 1 kts 250°
2026-05-06 13:42 50.03431 8.52720 334 ft 2 kts 249°
2026-05-06 13:42 50.03412 8.52640 334 ft 12 kts 249°
2026-05-06 13:43 50.03343 8.52593 336 ft 11 kts 179°
2026-05-06 13:43 50.03332 8.52593 336 ft 0 kts 179°
2026-05-06 13:44 50.03328 8.52593 336 ft 4 kts 179°
2026-05-06 13:44 50.03031 8.52596 331 ft 84 kts 180°
2026-05-06 13:44 50.02209 8.52604 335 ft 149 kts 180°
2026-05-06 13:45 50.01118 8.52632 871 ft 156 kts 182°
2026-05-06 13:45 49.98868 8.52627 2222 ft 176 kts 182°
2026-05-06 13:45 49.97576 8.52684 2651 ft 199 kts 174°
2026-05-06 13:46 49.96266 8.53785 2998 ft 237 kts 134°
2026-05-06 13:46 49.95416 8.56010 3788 ft 244 kts 121°
2026-05-06 13:46 49.94617 8.58324 3970 ft 241 kts 121°
2026-05-06 13:46 49.94082 8.60808 4004 ft 254 kts 99°
2026-05-06 13:47 49.93943 8.63685 4007 ft 273 kts 95°
2026-05-06 13:47 49.93741 8.66633 4002 ft 273 kts 105°
2026-05-06 13:47 49.93040 8.69349 4004 ft 269 kts 123°
2026-05-06 13:47 49.91854 8.71568 4023 ft 268 kts 142°
2026-05-06 13:48 49.90339 8.73255 4830 ft 271 kts 148°
2026-05-06 13:48 49.88853 8.75066 6063 ft 274 kts 138°
2026-05-06 13:48 49.87690 8.77453 7091 ft 281 kts 122°
2026-05-06 13:48 49.86748 8.80144 8136 ft 285 kts 121°
2026-05-06 13:49 49.85797 8.82814 9140 ft 289 kts 121°
2026-05-06 13:49 49.84804 8.85560 10034 ft 296 kts 122°
2026-05-06 13:49 49.83746 8.88462 10460 ft 321 kts 121°
2026-05-06 13:49 49.82617 8.91548 11034 ft 336 kts 122°
2026-05-06 13:50 49.81456 8.94732 11860 ft 342 kts 121°
2026-05-06 13:50 49.80279 8.97971 12744 ft 346 kts 121°
2026-05-06 13:50 49.79091 9.01237 13616 ft 350 kts 121°
2026-05-06 13:50 49.77886 9.04543 14381 ft 354 kts 121°
2026-05-06 13:51 49.76709 9.07849 15168 ft 357 kts 118°
2026-05-06 13:51 49.75836 9.11471 15964 ft 363 kts 107°
2026-05-06 13:51 49.75204 9.15275 16724 ft 365 kts 110°
2026-05-06 13:51 49.74208 9.18885 17471 ft 366 kts 121°
2026-05-06 13:52 49.72771 9.22151 18203 ft 367 kts 132°
2026-05-06 13:52 49.71078 9.25142 18870 ft 370 kts 134°
2026-05-06 13:52 49.69391 9.28111 19531 ft 373 kts 133°
2026-05-06 13:52 49.67666 9.31150 20201 ft 376 kts 133°
2026-05-06 13:53 49.65934 9.34195 20860 ft 380 kts 133°
2026-05-06 13:53 49.64177 9.37286 21515 ft 383 kts 133°
2026-05-06 13:53 49.62545 9.40507 22144 ft 389 kts 125°
2026-05-06 13:53 49.61272 9.44238 22784 ft 395 kts 114°
2026-05-06 13:54 49.60367 9.48270 23403 ft 399 kts 110°
2026-05-06 13:54 49.59495 9.52360 23942 ft 402 kts 111°
2026-05-06 13:54 49.58629 9.56419 24465 ft 404 kts 111°
2026-05-06 13:54 49.57743 9.60553 24978 ft 407 kts 111°
2026-05-06 13:55 49.56847 9.64700 25427 ft 411 kts 111°
2026-05-06 13:55 49.55920 9.68949 25545 ft 423 kts 111°
2026-05-06 13:55 49.54968 9.73304 25680 ft 435 kts 111°
2026-05-06 13:55 49.53993 9.77785 25842 ft 444 kts 111°
2026-05-06 13:56 49.52805 9.82188 26143 ft 446 kts 120°
2026-05-06 13:56 49.51202 9.86268 26510 ft 445 kts 128°
2026-05-06 13:56 49.49300 9.89969 26857 ft 446 kts 133°
2026-05-06 13:56 49.47327 9.93700 27162 ft 451 kts 133°
2026-05-06 13:57 49.45338 9.97460 27502 ft 454 kts 133°
2026-05-06 13:57 49.43340 10.01231 27851 ft 456 kts 133°
2026-05-06 13:57 49.41329 10.05030 28198 ft 459 kts 133°
2026-05-06 13:57 49.39328 10.08805 28547 ft 461 kts 133°
2026-05-06 13:58 49.37306 10.12619 28782 ft 460 kts 133°
2026-05-06 13:58 49.35291 10.16422 28814 ft 458 kts 133°
2026-05-06 13:58 49.31270 10.23994 28814 ft 457 kts 134°
2026-05-06 13:59 49.27255 10.31505 28800 ft 457 kts 135°
2026-05-06 13:59 49.23172 10.38947 28804 ft 453 kts 140°
2026-05-06 14:00 49.18660 10.45671 28826 ft 452 kts 142°
2026-05-06 14:00 49.14903 10.51249 28832 ft 452 kts 141°
2026-05-06 14:01 49.10388 10.57954 28824 ft 452 kts 141°
2026-05-06 14:01 49.05869 10.64646 28792 ft 452 kts 142°
2026-05-06 14:02 49.01364 10.71293 28798 ft 452 kts 142°
2026-05-06 14:02 48.96831 10.77944 28788 ft 451 kts 142°
2026-05-06 14:03 48.92303 10.84562 28780 ft 451 kts 142°
2026-05-06 14:03 48.87781 10.91183 28771 ft 451 kts 142°
2026-05-06 14:04 48.83283 10.97775 28755 ft 451 kts 142°
2026-05-06 14:04 48.78747 11.04374 28725 ft 451 kts 143°
2026-05-06 14:05 48.74214 11.10950 28744 ft 450 kts 143°
2026-05-06 14:05 48.69712 11.17466 28755 ft 450 kts 143°
2026-05-06 14:06 48.65183 11.24006 28755 ft 450 kts 142°
2026-05-06 14:06 48.61233 11.31469 28772 ft 457 kts 134°
2026-05-06 14:07 48.57416 11.39160 28742 ft 457 kts 134°
2026-05-06 14:07 48.53579 11.46852 28744 ft 458 kts 134°
2026-05-06 14:08 48.49732 11.54526 28726 ft 459 kts 134°
2026-05-06 14:08 48.46254 11.62702 28728 ft 472 kts 121°
2026-05-06 14:09 48.43953 11.71985 28696 ft 477 kts 117°
2026-05-06 14:09 48.41665 11.81472 28746 ft 481 kts 117°
2026-05-06 14:10 48.39377 11.90905 28749 ft 481 kts 117°
2026-05-06 14:10 48.37073 12.00385 28745 ft 481 kts 117°
2026-05-06 14:11 48.34762 12.09859 28030 ft 481 kts 117°
2026-05-06 14:11 48.33603 12.14575 26431 ft 489 kts 116°
2026-05-06 14:11 48.32412 12.19396 24987 ft 494 kts 116°
2026-05-06 14:12 48.31210 12.24257 23626 ft 496 kts 116°
2026-05-06 14:12 48.30011 12.29117 22536 ft 491 kts 116°
2026-05-06 14:12 48.28856 12.33815 21676 ft 480 kts 115°
2026-05-06 14:12 48.27707 12.38490 20742 ft 472 kts 115°
2026-05-06 14:13 48.26569 12.43089 19843 ft 465 kts 116°
2026-05-06 14:13 48.25458 12.47554 19590 ft 445 kts 116°
2026-05-06 14:13 48.24401 12.51801 19470 ft 425 kts 116°
2026-05-06 14:13 48.23393 12.55848 19332 ft 400 kts 116°
2026-05-06 14:14 48.22310 12.59578 18449 ft 385 kts 128°
2026-05-06 14:14 48.20574 12.62558 17047 ft 378 kts 147°
2026-05-06 14:14 48.18327 12.64414 15615 ft 373 kts 166°
2026-05-06 14:14 48.15816 12.65486 14081 ft 380 kts 165°
2026-05-06 14:15 48.13476 12.67446 12704 ft 392 kts 144°
2026-05-06 14:15 48.11684 12.70545 11476 ft 396 kts 124°
2026-05-06 14:15 48.10702 12.74384 10534 ft 394 kts 102°
2026-05-06 14:15 48.10533 12.78351 10296 ft 367 kts 95°
2026-05-06 14:16 48.10484 12.81974 10165 ft 339 kts 95°
2026-05-06 14:16 48.10456 12.85391 10031 ft 315 kts 95°
2026-05-06 14:16 48.10434 12.88605 9637 ft 303 kts 94°
2026-05-06 14:16 48.10169 12.91650 9089 ft 290 kts 114°
2026-05-06 14:17 48.09183 12.94201 8507 ft 278 kts 135°
2026-05-06 14:17 48.07716 12.95929 7916 ft 269 kts 155°
2026-05-06 14:17 48.05951 12.96736 7279 ft 265 kts 175°
2026-05-06 14:17 48.04176 12.96521 7087 ft 245 kts 195°
2026-05-06 14:18 48.02677 12.95552 6964 ft 226 kts 212°
2026-05-06 14:18 48.01544 12.94080 6793 ft 213 kts 228°
2026-05-06 14:18 48.00764 12.92215 6395 ft 212 kts 245°
2026-05-06 14:18 48.00367 12.90078 5933 ft 215 kts 256°
2026-05-06 14:19 47.99764 12.88079 5476 ft 210 kts 223°
2026-05-06 14:19 47.98606 12.87099 5527 ft 180 kts 186°
2026-05-06 14:19 47.97516 12.87352 5645 ft 145 kts 155°
2026-05-06 14:19 47.96621 12.87949 5553 ft 141 kts 160°
2026-05-06 14:20 47.95639 12.88131 5348 ft 144 kts 181°
2026-05-06 14:20 47.94657 12.88048 5015 ft 140 kts 170°
2026-05-06 14:20 47.93854 12.88737 4736 ft 134 kts 128°
2026-05-06 14:20 47.93318 12.89891 4398 ft 137 kts 123°
2026-05-06 14:21 47.92768 12.91049 4057 ft 137 kts 123°
2026-05-06 14:21 47.92135 12.92064 3957 ft 133 kts 139°
2026-05-06 14:21 47.91340 12.92733 3932 ft 133 kts 152°
2026-05-06 14:21 47.90487 12.93294 3830 ft 137 kts 154°
2026-05-06 14:22 47.89600 12.93854 3474 ft 138 kts 155°
2026-05-06 14:22 47.88731 12.94408 3236 ft 133 kts 152°
2026-05-06 14:22 47.87885 12.94961 3058 ft 132 kts 153°
2026-05-06 14:22 47.87045 12.95499 2889 ft 133 kts 153°
2026-05-06 14:23 47.86188 12.96051 2667 ft 133 kts 154°
2026-05-06 14:23 47.85332 12.96597 2512 ft 134 kts 154°
2026-05-06 14:23 47.84475 12.97138 2320 ft 134 kts 154°
2026-05-06 14:23 47.83611 12.97682 2135 ft 136 kts 154°
2026-05-06 14:24 47.82736 12.98235 1957 ft 137 kts 154°
2026-05-06 14:24 47.81859 12.98796 1780 ft 139 kts 153°
2026-05-06 14:24 47.80969 12.99368 1616 ft 140 kts 155°
2026-05-06 14:24 47.80073 12.99929 1427 ft 138 kts 155°
2026-05-06 14:25 47.79373 13.00370 1425 ft 68 kts 157°
2026-05-06 14:25 47.79132 13.00483 1418 ft 19 kts 211°
2026-05-06 14:25 47.79119 13.00353 1420 ft 12 kts 277°
2026-05-06 14:25 47.79152 13.00242 1421 ft 12 kts 328°
2026-05-06 14:26 47.79230 13.00195 1422 ft 12 kts 337°
2026-05-06 14:26 47.79309 13.00144 1423 ft 13 kts 337°
2026-05-06 14:26 47.79357 13.00064 1422 ft 11 kts 260°
2026-05-06 14:26 47.79329 12.99972 1422 ft 8 kts 245°
2026-05-06 14:27 47.79308 12.99927 1422 ft 3 kts 182°
2026-05-06 14:27 47.79267 12.99956 1422 ft 12 kts 156°
2026-05-06 14:27 47.79164 13.00021 1422 ft 16 kts 157°
2026-05-06 14:27 47.79127 13.00125 1422 ft 11 kts 101°
2026-05-06 14:28 47.79124 13.00143 1422 ft 0 kts 101°